Regional Weather Roundup
Issued by NWS

Home | Current Version | Previous Version | Graphics & Text | Print | Product List | Glossary On
Versions: 1 2 3 4 5 6 7 8 9 10 11 12 13 14 15 16 17 18 19 20 21 22 23 24 25 26 27 28 29 30 31 32 33 34 35 36 37 38 39 40 41 42 43 44 45 46 47 48 49 50
000
ASUS43 KDMX 010107
RWRIA

WEATHER ROUNDUP FOR IOWA
NATIONAL WEATHER SERVICE DES MOINES IA
800 PM CDT FRI JUL 31 2015

NOTE: "FAIR" INDICATES FEW OR NO CLOUDS BELOW 12,000 FEET WITH NO
SIGNIFICANT WEATHER AND/OR OBSTRUCTIONS TO VISIBILITY.

* - THESE STATIONS ARE NOT NWS STATIONS...THUS NOT UNDER NWS
QUALITY CONTROL.  THEY ALSO DO NOT REPORT WEATHER SUCH
AS PRECIPITATION OR FOG.

IAZ001>003-012>014-020>022-031>034-043>046-010200-
   NORTHWEST IOWA

CITY           SKY/WX    TMP DP  RH WIND       PRES   REMARKS
CARROLL *      CLEAR     77  70  78 E5        30.05S
CHEROKEE *     CLEAR     79  64  61 CALM      30.05S HX  81
DENISON *      CLEAR     79  72  78 E6        30.02F HX  82
LE MARS *      CLEAR     81  64  57 SE5       30.05F HX  82
ORANGE CITY *  CLEAR     79  64  61 CALM      30.06F HX  81
SHELDON *      CLEAR     77  66  69 S3        30.05S
SIOUX CITY     PTCLDY    83  69  62 E7        30.03S HX  86
SPENCER        CLEAR     80  62  54 CALM      30.06F HX  81
STORM LAKE *   CLEAR     77  68  73 CALM      30.07S
$$

IAZ055>058-069>071-079>083-090>094-010200-
   SOUTHWEST IOWA

CITY           SKY/WX    TMP DP  RH WIND       PRES   REMARKS
ATLANTIC *     PTCLDY    82  75  78 CALM      30.03S HX  89
AUDUBON *      CLEAR     79  72  78 CALM      30.06S HX  82
CLARINDA *     MOCLDY    79  70  73 E9        30.05S HX  81
COUNCIL BLFS * PTCLDY    81  73  78 SE3       30.03R HX  85
CRESTON *      CLEAR     73  66  78 W7        30.05F
HARLAN  *      CLEAR     82  81  94 E5        30.06F HX  95
LAMONI         CLOUDY    73  63  70 W6        30.05S
RED OAK *      MOCLDY    77  68  73 CALM      30.04R
SHENANDOAH *   LGT RAIN  73  72  94 CALM      30.04S
$$

IAZ047>049-059>061-072>074-084-010200-
   CENTRAL IOWA

CITY           SKY/WX    TMP DP  RH WIND       PRES   REMARKS
AMES           CLEAR     79  62  56 NE3       30.05R HX  80
ANKENY *       MOCLDY    79  68  69 NE3       30.04S HX  81
CHARITON *     CLEAR     79  72  78 CALM      30.04F HX  82
DES MOINES     PTCLDY    84  59  42 E6        30.03S HX  84
GRINNELL*      CLEAR     73  64  73 N6        30.05F
KNOXVILLE *    CLEAR     81  61  50 N6        30.03S HX  81
MARSHALLTOWN   CLEAR     77  65  66 CALM      30.04S
PELLA *        CLEAR     79  72  78 CALM      30.05S HX  82
PERRY *          N/A     79  68  69 CALM      30.04F HX  81
$$

IAZ004>006-015-016-023>025-035-036-010200-
   NORTH CENTRAL IOWA

CITY           SKY/WX    TMP DP  RH WIND       PRES   REMARKS
ALGONA *       CLEAR     77  63  61 CALM      30.06S
CLARION *      CLEAR     77  64  65 CALM      30.05S
ESTHERVILLE    CLEAR     74  65  73 CALM      30.05F
FORT DODGE *   CLEAR     75  64  69 CALM      30.07S
MASON CITY     LGT RAIN  75  62  64 W6        30.06R
FOREST CITY *  CLEAR     73  59  60 CALM      30.05S
IOWA FALLS *     N/A     77  64  65 CALM      30.06S
$$

IAZ007>011-017>019-026>030-037>042-050>054-066-010200-
   NORTHEAST IOWA

CITY           SKY/WX    TMP DP  RH WIND       PRES   REMARKS
CEDAR RAPIDS   CLEAR     75  64  68 W5        30.03S
CHARLES CITY * CLEAR     73  63  68 W5        30.04S
CLINTON *      CLEAR     72  61  68 W8        30.02S
DECORAH *      CLEAR     75  55  50 NW5       30.01R
DUBUQUE        CLEAR     73  55  53 NW6       30.01S
MONTICELLO *   CLEAR     75  57  53 W6        30.01S
OELWEIN *      CLEAR     73  64  73 W6        30.04R
WATERLOO       CLEAR     76  59  55 NW5       30.02S
$$

IAZ064-065-067-068-078-010200-
   EAST CENTRAL IOWA

CITY           SKY/WX    TMP DP  RH WIND       PRES   REMARKS
DAVENPORT      CLEAR     74  61  63 W5        30.02R
IOWA CITY      CLEAR     78  61  55 W6        30.04R HX  80
MT. PLEASANT * PTCLDY    81  61  50 N3        30.03S HX  81
MUSCATINE *    MOCLDY    79  61  53 NW6       30.03R HX  80
QUAD CITIES    CLEAR     80  55  42 NW10      30.01R HX  80
$$

IAZ062-063-075>077-085>089-095>099-010200-
   SOUTHEAST IOWA

CITY           SKY/WX    TMP DP  RH WIND       PRES   REMARKS
BURLINGTON     MOCLDY    79  65  62 N5        30.02S HX  81
FAIRFIELD *    MOCLDY    79  68  69 NW5       30.03F HX  81
FORT MADISON * MOCLDY    79  68  69 CALM      30.03S HX  81
KEOKUK *       CLEAR     81  70  69 CALM      30.01S HX  84
OSKALOOSA *      N/A     77  68  73 CALM      30.04S
CENTERVILLE *  CLEAR     77  72  83 NE5       30.05S
OTTUMWA        CLEAR     80  66  62 N6        30.02S HX  82
WASHINGTON *   CLEAR     77  64  65 N6        30.04S
$$

ABBREVIATIONS USED IN REMARKS
   TC - TEMPERATURES IN CELSIUS
  WCI - WIND CHILL INDEX
   HX - HEAT INDEX
  VSB - VISIBILITY
$$



USA.gov is the U.S. government's official web portal to all federal, state and local government web resources and services.